Location: Newark
(35.6799°N, 139.7636°E)
Time: 05:07:21
(UTC+00:00)

Vanguard 1 Rocket - Pass Details

Date: 15 December 2019
Orbit: 650 x 4226 km, 34.3° (Epoch: 19 January)

Event Time Altitude Azimuth Distance (km) Brightness Sun altitude
Rises 10:50:11 0° 248° (WSW) 8,373 13.1 -40.0°
Reaches altitude 10° 10:56:23 10° 248° (WSW) 7,120 12.5 -41.3°
Enters shadow 11:18:03 76° 185° (S) 2,752 9.5 -45.7°
